Regional Weather Roundup
Issued by NWS

Home | Current Version | Previous Version | Text Only | Print | Product List | Glossary Off
Versions: 1 2 3 4 5 6 7 8 9 10 11 12 13 14 15 16 17 18 19 20 21 22 23 24 25 26 27 28 29 30 31 32 33 34 35 36 37 38 39 40 41 42 43 44 45 46 47 48 49 50

000
ASUS43 KDTX 261701
RWRMI
MICHIGAN HOURLY REGIONAL WEATHER ROUNDUP
NATIONAL WEATHER SERVICE DETROIT/PONTIAC MI
1200 PM EST SUN FEB 26 2017

NOTE: "FAIR" INDICATES FEW OR NO CLOUDS BELOW 12,000 FEET WITH NO
SIGNIFICANT WEATHER AND/OR OBSTRUCTION TO VISIBILITY.

MIZ047>049-052>055-059>063-066>070-074>076-081>083-261800-
SOUTHEAST LOWER MICHIGAN

CITY           SKY/WX    TMP DP  RH WIND       PRES   REMARKS
ADRIAN         SUNNY     32  19  58 SW16G23   30.10F WCI  21
ALMA           SUNNY     35  19  52 S18       29.98F WCI  24
ANN ARBOR      SUNNY     33  20  58 S14       30.07S WCI  23
BAD AXE        PTSUNNY   32  17  54 SW14G22   29.98F WCI  22
CARO           MOSUNNY   35  17  48 SW15      29.99F WCI  25
DETROIT CITY   SUNNY     34  19  54 SW16      30.08F WCI  24
DETROIT        CLOUDY    35  19  52 S18       30.10S WCI  24
FLINT          MOSUNNY   34  17  50 S15G25    30.03S WCI  24
GROSSE ILE     SUNNY     34  20  57 S15G22    30.09S WCI  24
HILLSDALE      SUNNY     32  19  59 SW13G20   30.05S WCI  22
HOWELL         SUNNY     35  18  50 S15       30.03S WCI  25

CITY           SKY/WX    TMP DP  RH WIND       PRES   REMARKS
JACKSON        SUNNY     34  18  52 S14       30.04F WCI  25
LAMBERTVILLE   SUNNY     36  20  53 S12G18    30.11F WCI  27
LANSING        MOSUNNY   35  17  47 S20G26    30.02F WCI  24
LAPEER         FAIR      35  17  49 SW10G21   30.01F WCI  27
MASON          MOSUNNY   34  21  59 SW7       30.03S WCI  27
MONROE         SUNNY     35  21  57 SW12G18   30.10S WCI  27
PONTIAC        MOSUNNY   33  17  51 SW12G18   30.03S WCI  24
PORT HOPE        N/A     32  17  54 SW10G22   29.96F WCI  24
PORT HURON     SUNNY     34  19  55 S14G20    30.05F WCI  24
TRI CITIES     SUNNY     34  20  56 S15       29.99F WCI  24
MIDLAND        FAIR      35  18  51 S14G24    29.97F WCI  25
TROY           SUNNY     36  15  42 SW14G20   30.08S WCI  27
SAGINAW HB     SUNNY     34  19  55 SW17G25   29.99F WCI  23
$$
MIZ043>046-050>051-056>058-064>065-071>073-077>080-261800-
SOUTHWEST LOWER MICHIGAN

CITY           SKY/WX    TMP DP  RH WIND       PRES   REMARKS
BATTLE CREEK   MOSUNNY   33  21  61 SW20G25   30.03S WCI  21
BENTON HARBOR  CLOUDY    34  18  52 S14       30.01F WCI  25
BIG RAPIDS     PTSUNNY   33  21  61 SW18G24   29.91S WCI  22
COLDWATER      PTSUNNY   35  19  52 SW16      30.06F WCI  26
FREMONT        CLOUDY    32  20  62 SW22G33   29.93F WCI  19
HOLLAND        CLOUDY    34  17  50 SW18G35   29.99S WCI  23
IONIA          PTSUNNY   33  18  53 S14G20    29.99S WCI  23
KALAMAZOO      CLOUDY    32  19  58 S18       30.04S WCI  20
LUDINGTON      LGT SNOW  32  26  79 S21G32    29.87F WCI  20
MARSHALL       PTSUNNY   33  20  58 S13G20    30.04S WCI  24
MOUNT PLEASANT MOSUNNY   35  19  53 SW13G22   29.94F WCI  26
MUSKEGON       LGT SNOW  33  25  72 S17G31    29.94F WCI  22
SOUTH HAVEN    CLOUDY    33  18  55 S14G20    30.01F WCI  23
$$
MIZ016>042-261800-
NORTHERN LOWER MICHIGAN

CITY           SKY/WX    TMP DP  RH WIND       PRES   REMARKS
ALPENA         SUNNY     33  18  53 SW16G25   29.87F WCI  23
BEAVER ISLAND  LGT SNOW  30  28  93 S15G23    29.77F WCI  19
BELLAIRE       CLOUDY    32  22  67 S14G23    29.84F WCI  22
CADILLAC       CLOUDY    31  22  71 SW14G25   29.84F WCI  20
CHARLEVOIX     CLOUDY    30  24  77 S15G25    29.84F HAZE    WCI  19
FRANKFORT      LGT SNOW  31  28  89 S15G26    29.85R VSB 3/4 WCI  20
GAYLORD        CLOUDY    30  20  66 SW14G25   29.81F HAZE    WCI  19
GRAYLING       PTSUNNY   32  20  60 SW13G24   29.85F WCI  22
HARBOR SPRINGS PTSUNNY   31  22  71 SW15G26   29.81F WCI  20
HOUGHTON LAKE  MOSUNNY   32  20  61 S17G24    29.88F WCI  21
MANISTEE       LGT SNOW  30  27  86 S8        29.86S FOG     WCI  23
OSCODA         MOSUNNY   33  19  55 SW18G28   29.93S WCI  22
PELLSTON       CLOUDY    30  21  69 SW14G25   29.81F WCI  19
TRAVERSE CITY  PTSUNNY   33  22  63 S9G26     29.83F WCI  25
$$
MIZ007>008-015-261800-
EASTERN UPPER MICHIGAN

CITY           SKY/WX    TMP DP  RH WIND       PRES   REMARKS
KINROSS        LGT SNOW  29  26  89 S9G17     29.76F VSB 3/4 WCI  20
MACKINAC ISLAN LGT SNOW  28  24  83 SW13G23   29.78F WCI  18
NEWBERRY       LGT SNOW  28  27  96 SW15G25   29.71F VSB 3/4 WCI  17
S. S. MARIE    LGT SNOW  30  25  81 S12       29.76S WCI  20
MUNISING         N/A     27  20  75 S10G21    29.71F WCI  17
$$
MIZ004>006-011>014-085-261800-
CENTRAL UPPER MICHIGAN

CITY           SKY/WX    TMP DP  RH WIND       PRES   REMARKS
MANISTIQUE     LGT SNOW  29  28  96 SW14G24   29.75S WCI  19
ESCANABA       CLOUDY    30  22  72 SW15G23   29.75S WCI  19
MENOMINEE      CLOUDY    33  20  58 SW15G24   29.77F WCI  23
SAWYER-GWINN   FLURRIES  21  18  86 SW17      29.69  WCI   7
$$
MIZ001>003-009>011-084-261800-
WESTERN UPPER MICHIGAN

CITY           SKY/WX    TMP DP  RH WIND       PRES   REMARKS
IRON MOUNTAIN  CLOUDY    29  18  63 W14G21    29.69F WCI  18
HOUGHTON       CLOUDY    27  19  72 W9        29.61F WCI  18
COPPER HARBOR    N/A     31  22  69 VRB6      29.62F WCI  25
IRONWOOD       CLOUDY    28  20  71 SW14      29.65S WCI  17
$$

ABBREVIATIONS USED IN REMARKS
   TC - TEMPERATURE IN CELSIUS
  WCI - WIND CHILL INDEX
   HX - HEAT INDEX
  VSB - VISIBILITY





USA.gov is the U.S. government's official web portal to all federal, state and local government web resources and services.